Weather History for KLHQ - August, 2013

Change the Weather History Date:

Thursday, August 29, 2013

  Actual Average (KCMH) Record (KCMH)
Temperature  
Mean Temperature 73 °F 72 °F  
Max Temperature 82 °F 83 °F 98 °F (1953)
Min Temperature 64 °F 62 °F 39 °F (1965)
Degree Days  
Heating Degree Days 0 0  
Month to date heating degree days 0  
Since 1 June heating degree days 19  
Since 1 July heating degree days 0  
Cooling Degree Days 8 8  
Month to date cooling degree days 266  
Year to date cooling degree days 874  
Since 1 June cooling degree days 792  
Growing Degree Days 23 (Base 50)    
Moisture  
Dew Point 67 °F    
Average Humidity 90    
Maximum Humidity 100    
Minimum Humidity 62    
Precipitation  
Precipitation 0.01 in 0.11 in 2.51 in (2008)
Month to date precipitation 3.10  
Year to date precipitation 27.47  
Snow  
Snow 0.00 in 0.00 in 0.00 in ()
Month to date snowfall 0.0  
Since 1 June snowfall 0.0  
Since 1 July snowfall 0.0  
Snow Depth -    
Sea Level Pressure  
Sea Level Pressure 30.02 in    
Wind  
Wind Speed 2 mph (NNE)    
Max Wind Speed 7 mph    
Max Gust Speed -    
Visibility 3 miles    
Events Fog    
T = Trace of Precipitation, MM = Missing Value Source: NWS Daily Summary

Daily Weather History Graph

Daily Weather History Graph

Search for Another Location

Airport or City:

Trip Planner

Search our weather history database for the weather conditions in past years. The results will help you decide how hot, cold, wet, or windy it might be!

Date:

Astronomy

Aug. 29, 2013 Rise Set
Actual Time 6:56 AM EDT 8:06 PM EDT
Civil Twilight 6:28 AM EDT 8:33 PM EDT
Nautical Twilight 5:54 AM EDT 9:07 PM EDT
Astronomical Twilight 5:20 AM EDT 9:41 PM EDT
Moon 12:47 AM EDT (8/29) 3:33 PM EDT (8/29)
Length of Visible Light 14h 05m
Length of Day
13h 10m
Last Quarter, 38% of the Moon is Illuminated
Aug 29
Last Quarter
Sep 5
New
Sep 12
First Quarter
Sep 19
Full
Sep 26
Last Quarter

Hourly Weather History & Observations

Time (EDT) Temp. Heat Index Dew Point Humidity Pressure Visibility Wind Dir Wind Speed Gust Speed Precip Events Conditions
12:53 AM 70.0 °F - 68.0 °F 93% 29.96 in 5.0 mi North 3.5 mph - N/A   Clear
1:53 AM 70.0 °F - 68.0 °F 93% 29.96 in 4.0 mi North 3.5 mph - N/A   Clear
2:53 AM 68.0 °F - 66.0 °F 93% 29.96 in 3.0 mi Calm Calm - N/A   Clear
3:03 AM 66.2 °F - 64.4 °F 94% 29.98 in 2.0 mi Calm Calm - N/A   Clear
3:14 AM 66.2 °F - 64.4 °F 94% 29.98 in 1.0 mi Calm Calm - N/A   Clear
3:22 AM 66.2 °F - 64.4 °F 94% 29.98 in 0.5 mi Calm Calm - N/A Fog Fog
3:30 AM 66.2 °F - 64.4 °F 94% 29.99 in 0.2 mi Calm Calm - N/A Fog Fog
3:39 AM 66.2 °F - 64.4 °F 94% 29.99 in 0.2 mi Calm Calm - N/A Fog Fog
3:53 AM 64.9 °F - 64.0 °F 97% 29.97 in 0.2 mi Calm Calm - 0.01 in Fog Fog
4:06 AM 64.4 °F - 64.4 °F 100% 29.98 in 0.2 mi Calm Calm - N/A Fog Fog
4:14 AM 64.4 °F - 64.4 °F 100% 29.98 in 0.2 mi Calm Calm - N/A Fog Fog
4:21 AM 64.4 °F - 64.4 °F 100% 29.98 in 0.2 mi Calm Calm - N/A Fog Fog
4:53 AM 64.0 °F - 63.0 °F 96% 29.97 in 0.2 mi Calm Calm - N/A Fog Fog
5:12 AM 64.4 °F - 62.6 °F 94% 29.99 in 1.2 mi Calm Calm - N/A   Mostly Cloudy
5:21 AM 64.4 °F - 62.6 °F 94% 29.99 in 1.2 mi North 3.5 mph - N/A   Scattered Clouds
5:28 AM 64.4 °F - 64.4 °F 100% 29.99 in 1.0 mi NNW 3.5 mph - N/A   Mist
5:35 AM 66.2 °F - 66.2 °F 100% 30.00 in 1.8 mi NNW 5.8 mph - N/A   Mostly Cloudy
5:42 AM 68.0 °F - 66.2 °F 94% 30.00 in 1.0 mi NNW 6.9 mph - N/A   Mostly Cloudy
5:51 AM 68.0 °F - 68.0 °F 100% 30.00 in 0.8 mi NNW 5.8 mph - N/A   Mist
5:53 AM 68.0 °F - 68.0 °F 100% 29.98 in 0.8 mi North 3.5 mph - N/A   Mist
6:06 AM 69.8 °F - 68.0 °F 94% 30.00 in 1.2 mi North 4.6 mph - N/A   Overcast
6:31 AM 69.8 °F - 68.0 °F 94% 30.01 in 2.0 mi Calm Calm - N/A   Overcast
6:48 AM 69.8 °F - 68.0 °F 94% 30.02 in 2.5 mi NNW 3.5 mph - N/A   Overcast
6:53 AM 69.1 °F - 68.0 °F 96% 30.00 in 2.5 mi Calm Calm - N/A   Overcast
7:21 AM 69.8 °F - 68.0 °F 94% 30.03 in 1.8 mi North 3.5 mph - N/A   Overcast
7:53 AM 70.0 °F - 68.0 °F 93% 30.02 in 1.2 mi Calm Calm - N/A   Overcast
8:29 AM 69.8 °F - 69.8 °F 100% 30.05 in 1.5 mi Calm Calm - N/A   Overcast
8:39 AM 71.6 °F - 69.8 °F 94% 30.05 in 1.5 mi Calm Calm - N/A   Overcast
8:53 AM 71.1 °F - 69.1 °F 93% 30.04 in 2.0 mi Calm Calm - N/A   Overcast
9:08 AM 71.6 °F - 69.8 °F 94% 30.06 in 1.8 mi Calm Calm - N/A   Overcast
9:53 AM 72.0 °F - 70.0 °F 93% 30.04 in 2.0 mi Calm Calm - N/A   Overcast
10:03 AM 71.6 °F - 69.8 °F 94% 30.06 in 2.0 mi Calm Calm - N/A   Overcast
10:12 AM 71.6 °F - 69.8 °F 94% 30.06 in 2.5 mi North 3.5 mph - N/A   Overcast
10:23 AM 73.4 °F - 69.8 °F 88% 30.07 in 2.5 mi Calm Calm - N/A   Overcast
10:42 AM 73.4 °F - 69.8 °F 88% 30.06 in 4.0 mi NE 3.5 mph - N/A   Overcast
10:53 AM 73.0 °F - 70.0 °F 90% 30.05 in 4.0 mi NE 4.6 mph - N/A   Overcast
11:13 AM 75.2 °F - 69.8 °F 83% 30.07 in 5.0 mi North 4.6 mph - N/A   Haze
11:53 AM 75.0 °F - 69.1 °F 82% 30.05 in 6.0 mi ENE 4.6 mph - N/A   Haze
12:53 PM 77.0 °F - 70.0 °F 79% 30.06 in 6.0 mi North 3.5 mph - N/A   Haze
1:46 PM 80.6 °F 84.6 °F 71.6 °F 74% 30.06 in 6.0 mi NNE 3.5 mph - N/A   Haze
1:53 PM 79.0 °F - 71.1 °F 77% 30.05 in 7.0 mi NE 3.5 mph - N/A   Overcast
2:08 PM 78.8 °F - 69.8 °F 74% 30.06 in 6.0 mi ENE 5.8 mph - N/A   Haze
2:21 PM 80.6 °F 84.6 °F 71.6 °F 74% 30.06 in 7.0 mi NNE 5.8 mph - N/A   Overcast
2:53 PM 82.0 °F 85.9 °F 70.0 °F 67% 30.04 in 10.0 mi Variable 3.5 mph - N/A   Scattered Clouds
3:53 PM 81.0 °F 84.4 °F 70.0 °F 69% 30.01 in 10.0 mi NNE 4.6 mph - N/A   Mostly Cloudy
4:53 PM 82.0 °F 85.5 °F 69.1 °F 65% 30.01 in 10.0 mi NNE 5.8 mph - N/A   Partly Cloudy
5:53 PM 82.0 °F 84.9 °F 68.0 °F 62% 30.01 in 10.0 mi ENE 4.6 mph - N/A   Clear
6:53 PM 80.1 °F 83.2 °F 70.0 °F 71% 30.01 in 10.0 mi NE 4.6 mph - N/A   Clear
7:53 PM 75.0 °F - 70.0 °F 84% 30.01 in 9.0 mi Calm Calm - N/A   Clear
8:53 PM 70.0 °F - 66.9 °F 90% 30.01 in 8.0 mi Calm Calm - N/A   Clear
9:53 PM 68.0 °F - 66.9 °F 96% 30.03 in 5.0 mi Calm Calm - N/A   Clear
10:14 PM 68.0 °F - 66.2 °F 94% 30.05 in 1.5 mi Calm Calm - N/A   Clear
10:17 PM 68.0 °F - 66.2 °F 94% 30.05 in 1.0 mi Calm Calm - N/A   Mist
10:26 PM 68.0 °F - 66.2 °F 94% 30.04 in 2.5 mi Calm Calm - N/A   Partly Cloudy
10:33 PM 68.0 °F - 66.2 °F 94% 30.04 in 6.0 mi Calm Calm - N/A   Clear
10:53 PM 66.0 °F - 64.9 °F 96% 30.02 in 2.5 mi Calm Calm - N/A   Clear
11:00 PM 66.2 °F - 64.4 °F 94% 30.04 in 1.2 mi Calm Calm - N/A   Clear
11:11 PM 66.2 °F - 64.4 °F 94% 30.04 in 0.8 mi Calm Calm - N/A   Clear
11:19 PM 66.2 °F - 64.4 °F 94% 30.04 in 0.2 mi Calm Calm - N/A Fog Fog
11:53 PM 64.9 °F - 64.0 °F 97% 30.02 in 0.2 mi Calm Calm - N/A Fog Fog